Location: Chèvreville
(49.1099°N, 2.8495°E)
Time: 15:45:34
(UTC+00:00)

RESURS DK-1 - Pass Details

Date: 28 January 2023
Orbit: 549 x 557 km, 69.9° (Epoch: 25 March)

Event Time Altitude Azimuth Distance (km) Brightness Sun altitude
Rises 18:29:06 0° 338° (NNW) 2,738 6.1 -18.0°
Reaches altitude 10° 18:31:48 10° 355° (N) 1,842 5.0 -18.5°
Enters shadow 18:33:28 17° 17° (NNE) 1,444 4.2 -18.7°
